Weather History for Livingston, MT

Change the Weather History Date:

Wednesday, November 21, 2012

  Actual Average Record
Temperature  
Mean Temperature 44 °F 32 °F  
Max Temperature 57 °F 41 °F 73 °F (2002)
Min Temperature 32 °F 22 °F -12 °F (1977)
Degree Days  
Heating Degree Days 20 33  
Month to date heating degree days 614  
Since 1 July heating degree days 1642  
Moisture  
Dew Point 30 °F    
Average Humidity 67    
Maximum Humidity 93    
Minimum Humidity 30    
Precipitation  
Precipitation 0.15 in 0.02 in 0.27 in (1986)
Month to date precipitation 0.41  
Year to date precipitation 14.11  
Sea Level Pressure  
Sea Level Pressure 29.79 in    
Wind  
Wind Speed 22 mph (WSW)    
Max Wind Speed 38 mph    
Max Gust Speed 51 mph    
Visibility 7 miles    
Events Fog , Rain , Snow , Thunderstorm    
T = Trace of Precipitation, MM = Missing Value Source: NWS Daily Summary

Daily Weather History Graph

Daily Weather History Graph

Search for Another Location

Airport:

Trip Planner

Search our weather history database for the weather conditions in past years. The results will help you decide how hot, cold, wet, or windy it might be!

Date:

Astronomy

Nov. 21, 2012 Rise Set
Actual Time 7:30 AM MST 4:44 PM MST
Civil Twilight 6:57 AM MST 5:17 PM MST
Nautical Twilight 6:20 AM MST 5:54 PM MST
Astronomical Twilight 5:45 AM MST 6:29 PM MST
Moon 1:20 PM MST 12:34 AM MST
Length of Visible Light 10h 20m
Length of Day
9h 14m
Waxing Gibbous, 62% of the Moon is Illuminated
Nov 21
Waxing Gibbous
Nov 28
Full
Dec 6
Last Quarter
Dec 13
New
Dec 19
First Quarter

Hourly Weather History & Observations

Time (MST) Temp. Windchill Dew Point Humidity Pressure Visibility Wind Dir Wind Speed Gust Speed Precip Events Conditions
12:53 AM 54.0 °F - 28.0 °F 37% 29.71 in 10.0 mi SW 28.8 mph 41.4 mph N/A   Clear
1:53 AM 54.0 °F - 28.0 °F 37% 29.70 in 10.0 mi SW 20.7 mph 31.1 mph N/A   Clear
2:53 AM 54.0 °F - 28.0 °F 37% 29.70 in 10.0 mi SW 20.7 mph 33.4 mph N/A   Mostly Cloudy
3:53 AM 55.0 °F - 28.0 °F 35% 29.70 in 10.0 mi WSW 21.9 mph 36.8 mph N/A   Mostly Cloudy
4:53 AM 54.0 °F - 28.0 °F 37% 29.68 in 10.0 mi WSW 19.6 mph 27.6 mph N/A   Partly Cloudy
5:53 AM 55.0 °F - 28.0 °F 35% 29.66 in 10.0 mi WSW 29.9 mph 41.4 mph N/A   Scattered Clouds
6:53 AM 54.0 °F - 28.9 °F 38% 29.65 in 10.0 mi SW 33.4 mph 46.0 mph N/A   Overcast
7:53 AM 52.0 °F - 30.9 °F 45% 29.66 in 10.0 mi SW 33.4 mph 43.7 mph N/A   Scattered Clouds
8:53 AM 53.1 °F - 30.0 °F 41% 29.64 in 10.0 mi SW 32.2 mph 48.3 mph N/A   Partly Cloudy
9:53 AM 55.9 °F - 30.9 °F 39% 29.62 in 10.0 mi SW 34.5 mph 44.9 mph N/A   Overcast
10:53 AM 55.0 °F - 28.0 °F 35% 29.61 in 10.0 mi SW 35.7 mph 50.6 mph N/A   Clear
11:53 AM 54.0 °F - 30.0 °F 40% 29.60 in 10.0 mi SW 38.0 mph 50.6 mph N/A   Partly Cloudy
12:53 PM 57.9 °F - 30.0 °F 35% 29.59 in 10.0 mi West 19.6 mph 35.7 mph 0.00 in   Overcast
1:53 PM 57.9 °F - 26.1 °F 30% 29.56 in 10.0 mi SW 31.1 mph 41.4 mph N/A   Mostly Cloudy
2:23 PM 48.2 °F - 33.8 °F 58% 29.72 in 10.0 mi NW 16.1 mph 32.2 mph N/A   Overcast
2:36 PM 42.8 °F 32.3 °F 35.6 °F 76% 29.74 in 6.0 mi WNW 29.9 mph 38.0 mph 0.01 in Rain , Thunderstorm Light Thunderstorms and Rain
2:53 PM 39.9 °F 32.5 °F 36.0 °F 86% 29.71 in 10.0 mi WSW 12.7 mph - 0.01 in Rain Light Rain
3:53 PM 41.0 °F 35.8 °F 35.1 °F 79% 29.75 in 10.0 mi SW 8.1 mph - 0.00 in Rain Light Rain
4:53 PM 39.0 °F 28.8 °F 32.0 °F 76% 29.78 in 10.0 mi NNW 21.9 mph 28.8 mph 0.00 in   Overcast
4:58 PM 37.4 °F 28.9 °F 32.0 °F 81% 29.81 in 10.0 mi WNW 13.8 mph 28.8 mph N/A   Overcast
5:21 PM 35.6 °F 27.5 °F 33.8 °F 93% 29.83 in 3.0 mi NNW 11.5 mph 29.9 mph 0.03 in Snow Light Snow
5:23 PM 35.6 °F 26.2 °F 32.0 °F 87% 29.82 in 2.0 mi North 15.0 mph 29.9 mph 0.04 in Snow Light Snow
5:30 PM 33.8 °F 23.5 °F 32.0 °F 93% 29.83 in 1.5 mi NNW 16.1 mph 21.9 mph 0.05 in Snow Light Snow
5:42 PM 33.8 °F 25.8 °F 32.0 °F 93% 29.83 in 2.0 mi NNW 10.4 mph 20.7 mph 0.06 in Snow Light Snow
5:53 PM 34.0 °F 26.0 °F 32.0 °F 92% 29.85 in 2.0 mi NW 10.4 mph 23.0 mph 0.07 in Snow Light Snow
6:01 PM 35.6 °F 29.2 °F 32.0 °F 87% 29.87 in 7.0 mi West 8.1 mph - 0.00 in Snow Light Snow
6:15 PM 33.8 °F 28.6 °F 32.0 °F 93% 29.87 in 2.5 mi WSW 5.8 mph - 0.01 in Snow Light Snow
6:23 PM 35.6 °F 28.6 °F 32.0 °F 87% 29.87 in 6.0 mi West 9.2 mph - 0.01 in Snow Light Snow
6:39 PM 35.6 °F 26.2 °F 32.0 °F 87% 29.89 in 1.8 mi WNW 15.0 mph 20.7 mph 0.02 in Snow Light Snow
6:44 PM 33.8 °F 24.8 °F 30.2 °F 87% 29.90 in 0.8 mi WNW 12.7 mph 20.7 mph 0.03 in Snow Light Snow
6:53 PM 34.0 °F 25.5 °F 30.9 °F 89% 29.90 in 0.5 mi West 11.5 mph - 0.06 in Fog , Snow Snow
7:12 PM 33.8 °F 24.3 °F 30.2 °F 87% 29.90 in 0.8 mi WSW 13.8 mph - 0.01 in Snow Light Snow
7:14 PM 33.8 °F 23.9 °F 30.2 °F 87% 29.90 in 1.0 mi WSW 15.0 mph - 0.01 in Snow Light Snow
7:21 PM 33.8 °F 25.3 °F 30.2 °F 87% 29.91 in 2.0 mi WSW 11.5 mph - 0.01 in Snow Light Snow
7:28 PM 33.8 °F 25.8 °F 30.2 °F 87% 29.91 in 6.0 mi SW 10.4 mph - 0.01 in Snow Light Snow
7:53 PM 34.0 °F 28.0 °F 30.0 °F 85% 29.93 in 10.0 mi SSW 6.9 mph - 0.01 in   Overcast
8:53 PM 33.1 °F 25.5 °F 28.0 °F 82% 29.93 in 10.0 mi SW 9.2 mph - N/A   Overcast
9:53 PM 34.0 °F 23.8 °F 27.0 °F 75% 29.95 in 10.0 mi WSW 16.1 mph - N/A   Mostly Cloudy
10:53 PM 32.0 °F 19.8 °F 23.0 °F 69% 29.96 in 10.0 mi WSW 20.7 mph - N/A   Clear
11:53 PM 32.0 °F 19.5 °F 21.0 °F 64% 29.98 in 10.0 mi WSW 21.9 mph 27.6 mph N/A   Clear